Regional Weather Roundup
Issued by NWS Sioux Falls, SD

Home | Current Version | Previous Version | Text Only | Print | Product List | Glossary Off
Versions: 1 2 3 4 5 6 7 8 9 10 11 12 13 14 15 16 17 18 19 20 21 22 23 24 25 26 27 28 29 30 31 32 33 34 35 36 37 38 39 40 41 42 43 44 45 46 47 48 49 50

000
ASUS43 KFSD 061210
RWRFSD

WEATHER ROUNDUP FOR SE SOUTH DAKOTA/SW MINNESOTA/NW IOWA
NATIONAL WEATHER SERVICE SIOUX FALLS SD
600 AM CST FRI MAR 06 2015

NOTE: "FAIR" INDICATES FEW OR NO CLOUDS BELOW 12,000 FEET WITH NO
SIGNIFICANT WEATHER AND OR OBSTRUCTIONS TO VISIBILITY.


SDZ038>040-050-052>070-061300-
SOUTHEAST SOUTH DAKOTA

CITY           SKY/WX    TMP DP  RH WIND       PRES   REMARKS
CHAMBERLAIN    CLOUDY    28  19  71 CALM      30.10S
6HR MIN TEMP:  23; 6HR MAX TEMP:  28;

HURON          CLOUDY    20  14  77 CALM      30.07S
6HR MIN TEMP:  13; 6HR MAX TEMP:  22;

MADISON        FAIR      19  10  68 W10       30.05S WCI   8
MITCHELL       CLOUDY    30  19  63 W7        30.10S WCI  23
6HR MIN TEMP:  17; 6HR MAX TEMP:  31;

SIOUX FALLS    PTCLDY    19   9  65 CALM      30.08F
6HR MIN TEMP:  17; 6HR MAX TEMP:  23;

WINNER         FAIR      32  17  54 SW7       30.11S WCI  26
YANKTON        CLEAR     23  10  58 CALM      30.13F
$$

MNZ071-072-080-081-089-090-097-098-061300-
SOUTHWEST MINNESOTA

CITY           SKY/WX    TMP DP  RH WIND       PRES   REMARKS
FAIRMONT       CLEAR     16   7  67 S12       30.08F WCI   3
JACKSON        PTCLDY    19  10  68 SW16      30.09R WCI   5
LUVERNE        PTCLDY    12   9  85 CALM      30.10S
MARSHALL       CLEAR     21  10  63 W14       30.05S WCI   8
6HR MIN TEMP:  19; 6HR MAX TEMP:  23;

MONTEVIDEO     CLEAR     18  12  79 W7        30.04S WCI   8
PIPESTONE      PTCLDY    16   9  73 SW5       30.06S WCI   9
REDWOOD FALLS  PTCLDY    17  10  74 S7        30.06S WCI   8
TRACY          PTCLDY    21  12  67 SW15      30.05S WCI   8
WINDOM         PTCLDY    18  10  73 SW12      30.07S WCI   5
WORTHINGTON    PTCLDY    18   9  68 SW14      30.10R WCI   4
$$

IAZ001>003-012>014-020>022-031-032-NEZ013-014-SDZ071-061300-
NORTHWEST IOWA

CITY           SKY/WX    TMP DP  RH WIND       PRES   REMARKS
CHEROKEE       FAIR      16  10  78 S6        30.13F WCI   7
DENISON        PTCLDY    21  14  73 SW7G14    30.15R WCI  13
ESTHERVILLE    PTCLDY    13   7  77 S10       30.09F WCI   0
LE MARS        PTCLDY    18  12  79 S5        30.14S WCI  11
ORANGE CITY    PTCLDY    18  10  73 CALM      30.11S
SHELDON        MOCLDY    19  10  68 SW9       30.10S WCI   9
SIOUX CITY     CLEAR     15   8  73 E6        30.15S WCI   6
6HR MIN TEMP:  14; 6HR MAX TEMP:  27;

SPENCER        PTCLDY    16   8  71 SW7       30.12S WCI   6
6HR MIN TEMP:  13; 6HR MAX TEMP:  18;

STORM LAKE     PTCLDY    19  12  73 SW14      30.12S WCI   6
$$

ABBREVIATIONS USED IN REMARKS
   TC - TEMPERATURE IN CELSIUS
  WCI - WIND CHILL INDEX
   HX - HEAT INDEX
  VSB - VISIBILITY



USA.gov is the U.S. government's official web portal to all federal, state and local government web resources and services.